CAPE
3 2 0 0 4 9 2 4 8 9 13 5 9 6 0 2 1 0 0 3 4 6 7 4 0 1 0 0 0 0 0 0 1 0 0 0 0 1 0 3 1 3 9
0 0 0 0 8 2 6 0 16 11 13 8 0 0 0 0 2 0 0 11 6 1 4 0 0 0 0 0 0 0 0 0 1 0 0 0 0 0 0 0 0 1 1
4 0 0 0 3 0 1 8 10 0 0 0 0 0 0 0 0 0 0 0 0 0 0 0 0 0 0 0 1 0 0 1 2 0 1 0 0 0 0 0 0 0 0
0 0 0 2 0 0 0 0 0 0 0 0 0 0 0 0 0 0 1 0 0 0 0 0 0 0 0 0 0 0 0 0 0 0 0 0 6 0 0 0 0 0 0
0 0 0 0 0 0 0 0 0 0 0 0 1 0 0 0 0 0 0 0 0 0 0 0 0 4 0 0 0 0 0 0 0 0 0 0 0 0 0 0 0 0 0
0 0 0 0 0 0 0 0 0 0 0 0 0 0 0 0 0 0 0 0 0 0 0 0 0 0 0 0 0 0 0 0 0 0 0 3 2 0 0 0 0 0 0
0 0 0 0 0 0 0 0 2 0 0 0 0 0 0 0 0 0 0 0 5 0 0 0 0 0 0 0 0 0 0 13 29 1 12 14 2 0 0 0 0 0 2
0 0 0 0 0 0 0 0 4 1 0 0 0 0 0 0 0 0 0 0 10 0 0 0 0 0 0 0 0 0 0 0 0 0 14 9 8 5 0 1 0 0 0
0 0 0 0 0 2 6 7 6 4 1 0 0 0 0 0 0 0 0 0 0 0 0 0 0 0 0 0 0 0 0 0 0 0 3 9 2 5 1 0 0 0 0
0 0 0 0 1 5 0 0 0 0 3 4 0 0 0 0 0 0 0 0 0 0 0 0 0 0 0 0 0 0 0 0 0 0 0 1 2 0 0 11 8 4 3
0 1 3 7 4 0 0 0 0 0 0 3 0 0 0 0 0 0 0 0 0 0 0 0 0 0 0 0 0 0 0 0 0 0 0 0 0 0 0 0 8 5 7
0 0 0 0 0 0 0 0 0 0 0 0 0 0 0 0 0 0 0 0 0 0 0 0 0 0 0 0 0 0 0 0 0 0 0 0 0 0 0 0 4 6 17
0 0 0 0 0 0 0 0 0 0 0 0 0 0 0 0 0 0 0 0 0 0 0 0 0 0 0 0 0 0 0 0 0 0 1 0 0 0 0 0 0 0 12
0 0 0 0 0 0 0 0 0 0 0 0 0 0 0 0 0 0 0 0 0 0 0 0 0 0 0 0 0 0 0 0 0 0 0 0 0 0 0 0 0 0 1
0 0 0 0 0 0 0 0 0 0 0 0 0 0 0 0 0 0 0 0 0 0 0 0 0 0 0 0 0 0 0 0 0 0 0 0 0 1 1 0 1 0 2
0 0 0 0 0 0 0 0 0 0 0 0 0 0 0 0 0 0 0 0 0 0 0 0 0 0 0 0 0 0 0 0 0 0 0 1 2 2 1 0 1 2 1
0 0 0 0 0 0 0 0 0 0 0 0 0 0 0 0 0 0 0 0 0 0 0 0 0 0 0 0 0 0 0 0 0 0 1 2 1 1 1 1 1 1 1
0 0 0 0 0 0 0 0 0 0 0 0 0 0 0 0 0 0 0 0 0 0 0 0 0 0 0 0 0 0 0 0 0 0 0 1 1 1 1 2 2 2 2
0 0 0 0 0 0 0 0 0 0 0 0 0 0 0 0 0 0 0 0 0 0 0 0 0 0 0 0 0 0 0 0 0 0 0 1 1 2 2 2 1 1 1
0 0 0 0 0 0 0 0 0 0 0 0 0 0 0 0 0 0 0 0 0 0 0 0 0 0 0 0 0 0 0 0 0 0 1 1 1 1 2 2 0 2 1
0 0 0 0 0 0 0 0 0 0 0 0 0 0 0 0 0 0 0 0 0 0 0 0 0 0 0 0 0 0 0 0 0 0 1 2 1 1 2 0 1 1 1
0 0 0 0 0 0 0 0 0 0 0 0 0 0 0 0 0 0 0 0 0 0 0 0 0 0 0 0 0 0 0 0 0 0 1 2 2 2 2 1 1 1 2
0 0 0 0 0 0 0 0 0 0 0 0 0 0 0 0 0 0 0 0 0 0 0 0 0 0 0 0 0 0 0 0 0 0 1 0 2 1 1 2 1 1 0
0 0 0 0 0 0 0 0 0 0 0 0 1 0 0 0 0 0 0 0 0 0 0 0 0 0 0 0 0 0 0 0 0 0 0 2 1 1 1 1 2 2 1
0 0 0 0 0 0 0 0 0 0 0 0 0 0 0 0 0 0 0 0 0 0 0 0 0 0 0 0 0 0 0 0 0 0 0 1 0 1 2 0 0 1 0
0 0 0 0 0 0 0 0 1 0 0 0 0 0 1 0 1 0 0 0 0 0 0 0 0 0 0 0 0 0 0 0 0 0 0 0 0 0 1 0 1 0 0
CIN
-11 -11 -0 -2 -18 -20 -30 -32 -21 -24 -22 -20 -18 -17 -9 -28 -27 -26 -0 -51 -38 -20 -22 -43 -16 -9 -0 -0 -0 -7 -0 -0 -1 -0 -0 -0 -0 -21 -22 -36 -26 -15 -10
-0 -2 -0 -0 -6 -35 -34 -0 -21 -20 -17 -6 -1 -0 -0 -1 -31 -1 -0 -16 -16 -15 -86 -0 -0 -0 -0 -0 -0 -0 -0 -0 -6 -0 -0 -0 -0 -0 -2 -0 -0 -24 -12
-7 -8 -8 -5 -2 -0 -15 -28 -18 -15 -0 -0 -0 -0 -1 -5 -0 -0 -0 -1 -0 -0 -0 -0 -0 -0 -0 -0 -5 -0 -0 -14 -20 -17 -9 -12 -0 -0 -0 -0 -0 -0 -6
-0 -3 -0 -1 -0 -3 -0 -0 -0 -0 -0 -0 -2 -0 -0 -0 -0 -0 -9 -0 -0 -0 -0 -0 -0 -0 -0 -0 -0 -0 -0 -0 -0 -0 -15 -0 -26 -0 -0 -0 -0 -0 -0
-0 -2 -0 -0 -0 -0 -0 -0 -0 -0 -0 -2 -12 -0 -0 -0 -0 -0 -0 -0 -0 -0 -0 -0 -0 -2 -0 -0 -0 -0 -0 -0 -0 -0 -0 -0 -0 -0 -0 -0 -0 -0 -0
-2 -0 -0 -0 -0 -0 -0 -0 -0 -0 -0 -0 -0 -0 -0 -0 -0 -0 -0 -0 -0 -0 -0 -0 -0 -0 -0 -0 -0 -0 -0 -0 -35 -1 -0 -6 -4 -0 -0 -0 -0 -0 -0
-0 -0 -0 -0 -0 -0 -0 -0 -25 -0 -0 -0 -0 -0 -0 -0 -0 -0 -0 -4 -12 -7 -0 -0 -0 -0 -0 -0 -0 -0 -1 -16 -18 -6 -9 -7 -11 -0 -0 -0 -0 -0 -8
-2 -0 -0 -0 -0 -0 -0 -0 -26 -14 -0 -0 -0 -0 -0 -0 -0 -0 -0 -0 -27 -0 -0 -0 -0 -0 -0 -0 -0 -0 -0 -0 -8 -0 -17 -16 -19 -19 -0 -18 -3 -0 -2
-0 -0 -0 -0 -0 -34 -33 -33 -30 -35 -27 -0 -0 -0 -0 -0 -0 -0 -0 -0 -0 -0 -0 -0 -0 -0 -0 -0 -0 -0 -0 -0 -0 -0 -4 -19 -18 -13 -13 -0 -0 -0 -0
-0 -0 -0 -0 -30 -23 -0 -0 -0 -18 -25 -33 -1 -0 -0 -0 -0 -0 -0 -0 -0 -0 -0 -0 -0 -0 -0 -0 -0 -0 -0 -0 -0 -0 -0 -28 -33 -2 -2 -7 -6 -1 -1
-0 -26 -25 -23 -10 -0 -0 -0 -0 -0 -0 -12 -0 -0 -0 -0 -0 -0 -0 -0 -0 -0 -0 -0 -0 -0 -0 -0 -0 -0 -0 -0 -0 -0 -0 -0 -0 -0 -0 -0 -5 -7 -3
-0 -0 -0 -0 -0 -0 -0 -0 -0 -0 -0 -0 -0 -0 -0 -0 -0 -0 -0 -0 -0 -0 -0 -0 -0 -0 -0 -0 -0 -0 -0 -0 -0 -0 -0 -0 -0 -0 -0 -0 -8 -8 -7
-0 -0 -0 -0 -0 -0 -0 -0 -0 -0 -0 -0 -0 -0 -0 -0 -0 -0 -0 -0 -0 -0 -0 -0 -0 -0 -0 -0 -0 -0 -0 -0 -0 -0 -30 -0 -0 -0 -0 -0 -0 -1 -7
-0 -0 -0 -0 -0 -0 -0 -0 -0 -0 -0 -0 -0 -0 -0 -0 -0 -0 -0 -0 -0 -0 -0 -0 -0 -0 -0 -0 -0 -0 -0 -4 -0 -0 -0 -0 -0 -0 -0 -0 -0 -0 -1
-0 -0 -0 -0 -0 -0 -0 -0 -0 -0 -0 -0 -0 -0 -0 -0 -0 -0 -0 -0 -0 -0 -0 -0 -0 -0 -0 -0 -0 -0 -1 -0 -0 -0 -0 -0 -0 -0 -1 -0 -2 -0 -1
-0 -0 -0 -0 -0 -0 -0 -0 -0 -0 -0 -0 -0 -0 -0 -0 -0 -0 -0 -0 -0 -0 -0 -0 -0 -0 -0 -0 -0 -0 -0 -2 -0 -0 -0 -0 -0 -0 -0 -0 -0 -0 -0
-0 -0 -0 -0 -0 -0 -0 -0 -0 -0 -0 -0 -0 -0 -0 -0 -0 -0 -0 -0 -0 -0 -0 -0 -0 -0 -0 -0 -0 -0 -0 -0 -0 -0 -0 -0 -0 -0 -0 -0 -0 -0 -0
-0 -0 -0 -0 -0 -0 -0 -0 -0 -0 -0 -0 -0 -0 -0 -0 -0 -0 -0 -0 -0 -0 -0 -0 -0 -0 -0 -0 -0 -0 -0 -0 -0 -1 -0 -0 -0 -0 -0 -0 -0 -0 -0
-0 -0 -0 -0 -0 -0 -0 -0 -0 -0 -0 -0 -0 -0 -0 -0 -0 -0 -0 -0 -0 -0 -0 -0 -0 -0 -0 -0 -0 -0 -0 -0 -0 -0 -0 -0 -0 -0 -0 -0 -0 -0 -0
-0 -0 -0 -0 -0 -0 -0 -0 -0 -0 -0 -0 -0 -0 -0 -0 -0 -0 -0 -0 -0 -0 -0 -0 -0 -0 -0 -0 -0 -0 -0 -0 -0 -0 -0 -0 -0 -0 -0 -0 -0 -1 -1
-0 -0 -0 -0 -0 -0 -0 -0 -0 -0 -0 -0 -0 -0 -0 -0 -0 -0 -0 -0 -0 -0 -0 -0 -0 -0 -0 -0 -0 -0 -0 -0 -0 -0 -0 -0 -0 -0 -0 -0 -0 -0 -1
-0 -0 -0 -0 -0 -0 -0 -0 -0 -0 -0 -0 -0 -0 -0 -0 -0 -0 -0 -0 -0 -0 -0 -0 -0 -0 -0 -0 -0 -0 -0 -0 -0 -0 -0 -0 -0 -0 -0 -0 -0 -0 -1
-0 -0 -0 -0 -0 -0 -0 -0 -0 -0 -0 -0 -0 -0 -0 -0 -0 -0 -0 -0 -0 -0 -0 -0 -0 -0 -0 -0 -0 -0 -0 -0 -0 -0 -0 -0 -0 -0 -0 -0 -0 -0 -0
-0 -0 -0 -0 -0 -0 -0 -0 -0 -0 -0 -0 -25 -0 -0 -0 -0 -0 -0 -0 -0 -0 -0 -0 -0 -0 -0 -0 -0 -0 -0 -0 -0 -0 -0 -0 -0 -0 -0 -1 -0 -1 -1
-0 -0 -0 -0 -0 -0 -0 -0 -0 -0 -0 -0 -0 -0 -9 -9 -0 -0 -0 -0 -0 -0 -0 -0 -0 -0 -0 -0 -0 -0 -0 -0 -0 -0 -0 -0 -1 -1 -0 -0 -1 -1 -0
-0 -0 -0 -0 -0 -0 -0 -4 -14 -0 -0 -0 -0 -0 -31 -22 -53 -0 -0 -0 -0 -0 -0 -0 -0 -0 -0 -0 -0 -0 -0 -0 -0 -0 -0 -0 -0 -4 -3 -1 -1 -0 -2
Wind_Speed
35 35 34 34 33 31 31 32 31 31 30 30 29 28 27 28 28 30 31 31 30 29 28 26 26 24 24 24 25 25 25 26 29 30 29 30 30 29 29 28 27 26 26
34 33 33 33 31 31 30 30 30 30 30 29 30 29 29 30 30 31 30 30 29 29 28 28 28 27 27 27 27 28 28 27 27 30 29 29 30 29 28 29 29 28 26
32 31 31 31 31 30 28 27 29 30 31 31 32 31 29 30 30 30 29 28 29 29 29 29 29 28 28 27 26 26 27 27 26 27 28 27 27 28 29 29 30 30 27
30 29 28 29 29 25 25 28 29 31 32 32 33 33 33 32 33 32 30 29 29 30 29 28 28 28 28 28 27 27 27 27 27 27 27 28 27 29 28 31 34 32 32
27 26 25 24 24 25 27 28 30 30 31 32 33 33 34 34 34 33 31 30 30 31 31 30 27 28 30 28 26 26 26 27 27 27 28 29 30 32 32 31 34 33 32
24 22 20 22 25 25 27 28 29 30 31 32 32 33 34 33 33 32 30 28 29 31 34 34 30 30 31 31 28 28 24 24 26 24 27 30 31 31 30 33 33 32 29
17 15 22 24 24 24 26 28 28 28 29 31 31 33 34 35 36 36 31 25 26 30 34 33 33 32 32 33 32 30 28 30 23 21 26 29 31 30 32 34 32 31 28
11 20 13 17 23 5 18 27 27 24 26 28 31 33 35 36 37 37 37 32 25 28 30 32 33 34 33 34 33 31 29 30 31 29 24 27 29 32 32 26 26 28 27
15 5 8 11 12 11 17 24 22 24 23 25 27 31 34 36 38 36 35 34 27 27 29 29 30 32 32 33 33 33 31 30 32 32 31 29 31 29 30 29 31 30 29
11 12 13 13 13 19 30 31 30 27 22 22 24 29 34 36 35 37 35 32 33 32 27 29 29 29 30 31 30 30 32 31 32 32 33 32 31 31 31 28 28 29 28
13 13 10 6 23 28 27 30 32 33 35 30 28 30 34 35 33 34 35 33 31 31 28 32 32 32 26 29 26 23 25 28 29 32 33 33 34 32 31 30 28 27 27
13 12 16 24 27 30 32 30 30 31 31 31 31 31 32 34 34 34 33 32 32 31 30 27 27 34 33 35 32 30 28 33 27 33 34 35 36 33 33 31 28 28 24
14 19 25 25 25 26 31 33 33 32 32 31 31 32 33 31 32 33 33 33 32 31 30 32 34 34 36 36 37 35 31 30 33 35 35 35 35 35 33 30 28 28 25
12 16 17 20 22 23 24 27 30 31 32 33 32 31 31 31 30 32 33 31 31 33 32 32 33 35 35 36 37 35 31 31 34 35 35 36 37 34 32 29 28 27 26
16 18 16 15 17 19 21 22 24 25 27 30 30 29 30 32 29 28 30 31 31 32 31 33 37 36 37 37 38 36 32 32 34 34 37 38 36 34 31 29 27 26 25
20 15 13 19 15 14 16 19 20 21 22 23 24 24 25 24 26 28 32 33 34 35 35 35 37 38 38 39 39 37 37 35 33 35 37 39 35 32 29 27 26 25 24
15 15 19 21 22 19 19 16 19 19 17 18 20 22 20 20 21 23 28 31 31 36 36 35 37 38 38 39 39 38 37 39 31 35 37 36 30 26 26 25 25 23 21
16 15 14 17 15 19 19 21 17 20 21 22 20 21 21 23 23 24 24 29 31 35 34 35 36 37 37 38 40 38 37 39 38 30 34 30 24 21 21 21 20 20 19
17 19 16 16 16 15 16 20 22 20 20 22 24 27 26 27 29 27 29 30 31 33 34 36 35 36 37 37 39 34 38 14 12 14 20 20 18 16 18 17 16 16 16
12 13 14 15 15 20 20 21 20 21 22 19 22 25 25 27 27 28 30 30 30 31 33 34 35 36 37 39 35 23 16 14 12 11 8 7 11 11 13 14 13 14 14
15 10 9 12 16 22 22 19 21 24 24 20 20 22 23 25 25 27 27 29 30 30 31 33 34 36 37 38 26 14 13 15 12 10 8 5 5 8 9 10 11 12 11
14 14 12 14 16 18 17 17 16 18 23 22 21 21 21 23 24 27 26 27 28 28 28 31 33 35 37 38 11 16 16 16 10 10 9 5 1 3 6 8 9 8 8
14 14 15 19 18 20 19 19 21 18 20 21 22 23 22 25 23 25 26 26 27 26 26 29 32 34 36 33 15 17 16 13 9 12 8 5 0 3 7 8 7 8 8
14 11 20 20 19 18 19 20 23 23 24 25 22 23 24 24 20 21 23 24 24 26 25 27 31 34 38 29 21 19 15 12 7 10 7 4 0 3 10 10 10 11 11
13 14 20 20 22 23 23 22 23 21 23 25 23 25 22 21 22 23 18 20 21 23 24 26 30 35 39 30 25 23 21 17 10 11 6 4 1 4 10 12 12 12 15
16 21 20 19 21 24 23 24 26 27 30 30 27 27 26 25 24 25 22 25 20 20 23 24 30 36 37 26 23 23 21 19 10 11 6 6 5 7 9 13 13 12 12
Wind_Direction
347 346 346 348 351 351 352 351 355 357 2 9 8 13 17 15 17 14 10 9 7 11 12 11 5 0 356 355 350 348 344 340 330 332 336 337 339 341 340 338 342 339 337
350 351 349 342 352 349 350 351 354 358 2 8 7 10 9 8 11 7 8 9 13 11 9 6 0 357 353 349 348 344 341 341 337 332 337 342 343 346 346 341 341 341 339
349 348 351 346 352 354 352 353 3 7 7 9 9 10 13 13 12 14 15 18 14 11 8 6 4 3 0 358 358 357 352 351 347 340 335 341 348 350 353 351 344 341 343
353 351 349 353 355 351 357 12 16 19 18 18 21 22 22 21 17 15 15 16 17 18 18 16 12 9 6 3 4 4 1 1 1 351 343 337 346 347 352 351 345 339 337
355 353 349 347 354 2 11 13 16 20 24 26 27 27 24 22 20 20 22 25 24 20 16 12 13 9 2 0 1 359 358 357 358 356 347 337 336 338 342 348 343 341 337
354 347 342 352 358 5 13 13 18 32 30 32 30 27 24 23 19 18 22 23 22 18 15 14 14 7 359 355 357 359 2 360 354 355 351 343 334 338 342 337 343 340 348
327 326 354 6 4 6 6 18 32 37 34 33 33 28 24 20 15 11 17 22 21 21 17 17 15 11 7 3 1 357 360 357 6 5 352 349 341 338 337 333 337 336 346
285 2 56 85 34 283 35 39 33 41 39 36 33 30 23 18 10 9 14 22 33 27 25 21 15 13 12 8 2 2 5 4 2 1 3 354 347 334 330 351 350 345 347
81 266 166 130 109 96 67 40 44 40 40 38 35 30 25 20 14 14 18 23 28 29 25 19 15 11 8 4 2 359 0 6 5 6 356 354 345 345 342 342 329 334 335
168 157 129 108 92 56 18 19 26 29 40 41 39 31 25 19 18 17 17 22 17 16 21 16 13 12 9 8 6 4 356 359 359 0 353 349 342 344 336 345 343 331 335
151 129 130 134 48 30 29 27 24 25 27 34 38 32 25 24 23 20 18 22 23 21 24 15 14 13 21 16 18 18 13 5 359 355 351 346 342 342 339 342 335 345 332
140 127 89 43 38 38 32 30 27 25 25 27 27 26 26 25 25 24 23 22 23 23 21 25 26 11 13 7 11 13 11 355 7 355 350 342 337 338 334 334 342 340 349
129 91 63 63 59 56 43 37 36 35 34 34 30 27 25 28 29 27 26 25 25 23 22 13 9 10 4 4 356 4 13 11 360 350 347 344 343 342 336 333 334 332 342
142 100 85 70 63 57 53 47 42 39 37 34 32 32 31 30 31 28 26 25 25 21 19 19 15 9 8 5 1 7 14 12 1 356 351 342 335 335 333 330 328 326 325
103 81 88 86 72 61 55 50 47 46 42 38 37 37 34 31 30 28 26 25 24 22 21 18 10 8 4 2 357 2 14 12 5 1 348 338 335 329 327 325 325 318 321
61 96 99 64 73 68 60 53 51 48 46 43 41 38 36 34 30 28 24 21 21 19 16 16 10 8 5 0 353 359 360 6 8 1 351 337 328 325 324 322 325 318 309
112 98 70 61 57 56 54 58 51 48 49 46 42 36 35 30 28 28 27 25 26 20 18 18 15 13 10 4 356 356 3 1 12 3 343 329 321 316 318 319 318 313 306
81 80 84 63 68 56 53 47 54 44 41 42 42 36 36 31 31 32 32 28 27 24 24 21 19 18 15 9 354 358 6 2 344 13 331 321 310 300 300 302 301 300 299
86 72 77 70 62 58 53 47 43 42 43 41 37 35 36 32 30 34 30 30 27 25 24 22 22 22 18 16 8 19 7 325 326 311 306 303 298 291 292 287 283 286 291
106 87 76 66 60 50 43 43 42 40 38 44 37 35 34 32 31 31 30 31 30 29 27 24 24 23 18 11 22 33 322 327 331 333 336 304 284 273 279 276 273 282 288
72 92 91 66 62 46 46 48 43 35 32 38 39 35 34 33 33 31 32 31 30 28 27 25 24 22 21 19 34 329 332 326 333 347 354 340 283 261 255 255 268 283 275
80 64 70 53 59 45 44 40 36 38 34 34 36 33 35 35 35 31 32 33 31 31 32 28 25 24 22 358 358 327 327 324 345 351 347 339 309 156 170 254 273 259 260
67 58 54 47 46 42 46 38 35 36 31 32 31 29 33 31 34 35 35 37 37 39 41 35 29 26 26 32 334 327 327 328 347 336 354 5 327 188 172 188 220 215 215
59 57 39 42 43 42 39 36 32 31 32 29 27 33 31 29 35 37 38 43 44 44 44 41 33 28 17 346 332 330 328 329 3 357 3 55 259 170 151 165 174 176 172
41 51 38 37 38 33 29 32 27 30 27 23 34 25 27 28 40 32 40 42 43 42 42 44 34 26 8 339 335 333 331 331 354 5 52 88 52 139 144 149 159 161 153
38 29 35 38 36 32 33 27 27 29 26 26 29 24 29 27 27 29 34 29 37 41 41 44 33 19 359 337 335 337 336 337 357 7 69 97 107 124 137 141 145 154 155